Meteo pe oră la Almásfüzitõ

Astăzi, 26 Ianuarie, Marţi

Timp Temperatura Precipitaţii Vânt Presiune Umiditate
00:00 -2°C° 0 mm 4 m/s 744 mmHg 80%
01:00 -2°C° 0 mm 4 m/s 745 mmHg 79%
02:00 -2°C° 0 mm 5 m/s 745 mmHg 80%
03:00 -2°C° 0 mm 5 m/s 745 mmHg 80%
04:00 -2°C° 0 mm 5 m/s 746 mmHg 80%
05:00 -2°C° 0 mm 5 m/s 746 mmHg 80%
06:00 -2°C° 0 mm 5 m/s 746 mmHg 80%
07:00 -4°C° 0 mm 5 m/s 747 mmHg 80%
08:00 -2°C° 0 mm 5 m/s 747 mmHg 76%
09:00 -2°C° 0 mm 6 m/s 748 mmHg 72%
10:00 -2°C° 0 mm 6 m/s 749 mmHg 67%
11:00 -1°C° 0 mm 6 m/s 749 mmHg 65%
12:00 -1°C° 0 mm 7 m/s 749 mmHg 62%
13:00 0°C° 0 mm 7 m/s 749 mmHg 59%
14:00 -1°C° 0 mm 6 m/s 749 mmHg 60%
15:00 0°C° 0 mm 5 m/s 749 mmHg 61%
16:00 0°C° 0 mm 4 m/s 749 mmHg 63%
17:00 0°C° 0 mm 3 m/s 749 mmHg 69%
18:00 -1°C° 0 mm 3 m/s 749 mmHg 76%
19:00 -1°C° 0 mm 3 m/s 749 mmHg 83%
20:00 -1°C° 0 mm 3 m/s 749 mmHg 87%
21:00 -1°C° 0 mm 3 m/s 749 mmHg 91%
22:00 -2°C° 0 mm 4 m/s 750 mmHg 95%
23:00 -2°C° 0.1 mm 4 m/s 750 mmHg 93%

Mâine, 27 Ianuarie, Miercuri

Timp Temperatura Precipitaţii Vânt Presiune Umiditate
00:00 -2°C° 0.1 mm 4 m/s 750 mmHg 92%
01:00 -1°C° 0.1 mm 5 m/s 750 mmHg 90%
02:00 -2°C° 0 mm 5 m/s 750 mmHg 88%
03:00 -3°C° 0 mm 6 m/s 750 mmHg 85%
04:00 -3°C° 0 mm 7 m/s 750 mmHg 83%
05:00 -4°C° 0 mm 6 m/s 750 mmHg 83%
06:00 -4°C° 0 mm 6 m/s 751 mmHg 83%
07:00 -4°C° 0 mm 5 m/s 751 mmHg 83%
08:00 -3°C° 0 mm 6 m/s 751 mmHg 78%
09:00 -3°C° 0 mm 6 m/s 751 mmHg 73%
10:00 -2°C° 0 mm 7 m/s 751 mmHg 68%
11:00 -1°C° 0 mm 7 m/s 751 mmHg 66%
12:00 -1°C° 0 mm 7 m/s 750 mmHg 63%
13:00 0°C° 0 mm 7 m/s 750 mmHg 60%
14:00 -1°C° 0 mm 6 m/s 750 mmHg 63%
15:00 0°C° 0 mm 5 m/s 750 mmHg 65%
16:00 -1°C° 0 mm 4 m/s 749 mmHg 68%
17:00 0°C° 0 mm 3 m/s 750 mmHg 72%
18:00 -1°C° 0 mm 3 m/s 750 mmHg 77%
19:00 -2°C° 0 mm 3 m/s 750 mmHg 81%
20:00 -2°C° 0 mm 3 m/s 750 mmHg 82%
21:00 -2°C° 0 mm 3 m/s 750 mmHg 83%
22:00 -2°C° 0 mm 3 m/s 750 mmHg 84%
23:00 -2°C° 0 mm 3 m/s 750 mmHg 84%

Poimâine, 28 Ianuarie, Joi

Timp Temperatura Precipitaţii Vânt Presiune Umiditate
00:00 -2°C° 0 mm 3 m/s 750 mmHg 84%
01:00 -2°C° 0 mm 3 m/s 750 mmHg 84%
02:00 -2°C° 0 mm 3 m/s 749 mmHg 84%
03:00 -4°C° 0 mm 3 m/s 749 mmHg 85%
04:00 -4°C° 0 mm 3 m/s 749 mmHg 85%
05:00 -2°C° 0.1 mm 3 m/s 749 mmHg 88%
06:00 -2°C° 0.1 mm 3 m/s 748 mmHg 91%
07:00 -2°C° 0.1 mm 3 m/s 748 mmHg 94%
08:00 -1°C° 0.2 mm 3 m/s 748 mmHg 94%
09:00 -1°C° 0.2 mm 3 m/s 748 mmHg 94%
10:00 0°C° 0.2 mm 3 m/s 748 mmHg 93%
11:00 +1°C° 0 mm 3 m/s 747 mmHg 89%
12:00 +2°C° 0 mm 3 m/s 747 mmHg 84%
13:00 +3°C° 0 mm 3 m/s 747 mmHg 80%
14:00 +2°C° 0 mm 3 m/s 746 mmHg 79%
15:00 +2°C° 0 mm 3 m/s 745 mmHg 79%
16:00 +1°C° 0 mm 4 m/s 744 mmHg 78%
17:00 +2°C° 0 mm 3 m/s 744 mmHg 76%
18:00 +1°C° 0 mm 3 m/s 743 mmHg 74%
19:00 +2°C° 0 mm 2 m/s 743 mmHg 72%
20:00 +2°C° 0.3 mm 2 m/s 743 mmHg 78%
21:00 0°C° 0.3 mm 3 m/s 742 mmHg 83%
22:00 0°C° 0.3 mm 3 m/s 741 mmHg 89%
23:00 0°C° 0.3 mm 3 m/s 741 mmHg 88%

29 Ianuarie, Vineri

Timp Temperatura Precipitaţii Vânt Presiune Umiditate
00:00 0°C° 0.3 mm 3 m/s 741 mmHg 87%
01:00 +1°C° 0.3 mm 3 m/s 740 mmHg 86%
02:00 0°C° 0.3 mm 4 m/s 740 mmHg 87%
03:00 0°C° 0.3 mm 4 m/s 740 mmHg 89%
04:00 0°C° 0.3 mm 4 m/s 740 mmHg 90%
05:00 0°C° 0.1 mm 4 m/s 740 mmHg 91%
06:00 +1°C° 0.1 mm 3 m/s 740 mmHg 92%
07:00 +1°C° 0.1 mm 3 m/s 740 mmHg 93%
08:00 +1°C° 0.1 mm 3 m/s 740 mmHg 92%
09:00 +1°C° 0.1 mm 3 m/s 740 mmHg 90%
10:00 +1°C° 0.1 mm 3 m/s 740 mmHg 89%
11:00 +2°C° 1.4 mm 3 m/s 739 mmHg 90%
12:00 +2°C° 1.4 mm 3 m/s 739 mmHg 92%
13:00 +1°C° 1.4 mm 4 m/s 739 mmHg 93%
14:00 +3°C° 0.5 mm 4 m/s 739 mmHg 90%
15:00 +3°C° 0.5 mm 5 m/s 738 mmHg 87%
16:00 +5°C° 0.5 mm 5 m/s 738 mmHg 84%
17:00 +3°C° 0.2 mm 5 m/s 739 mmHg 86%
18:00 +4°C° 0.2 mm 4 m/s 739 mmHg 88%
19:00 +3°C° 0.2 mm 4 m/s 740 mmHg 91%
20:00 +3°C° 0.2 mm 4 m/s 740 mmHg 91%
21:00 +3°C° 0.2 mm 3 m/s 741 mmHg 92%
22:00 +3°C° 0.2 mm 3 m/s 741 mmHg 92%
23:00 +3°C° 0.2 mm 3 m/s 741 mmHg 93%

30 Ianuarie, Sâmbătă

Timp Temperatura Precipitaţii Vânt Presiune Umiditate
00:00 +3°C° 0.2 mm 2 m/s 741 mmHg 93%
01:00 +3°C° 0.2 mm 2 m/s 741 mmHg 94%
02:00 +3°C° 0.3 mm 2 m/s 741 mmHg 94%
03:00 +3°C° 0.3 mm 2 m/s 741 mmHg 94%
04:00 +2°C° 0.3 mm 3 m/s 741 mmHg 93%
05:00 +2°C° 0.3 mm 3 m/s 741 mmHg 94%
06:00 +1°C° 0.3 mm 3 m/s 741 mmHg 95%
07:00 +1°C° 0.3 mm 3 m/s 741 mmHg 95%
08:00 0°C° 0 mm 4 m/s 742 mmHg 90%
09:00 0°C° 0 mm 4 m/s 742 mmHg 85%
10:00 -1°C° 0 mm 4 m/s 743 mmHg 80%
11:00 0°C° 0 mm 4 m/s 743 mmHg 74%
12:00 0°C° 0 mm 4 m/s 743 mmHg 69%
13:00 +1°C° 0 mm 4 m/s 744 mmHg 63%
14:00 0°C° 0 mm 4 m/s 744 mmHg 66%
15:00 0°C° 0 mm 4 m/s 744 mmHg 68%
16:00 +1°C° 0 mm 3 m/s 744 mmHg 70%
17:00 0°C° 0 mm 3 m/s 745 mmHg 74%
18:00 -1°C° 0 mm 3 m/s 745 mmHg 79%
19:00 -1°C° 0 mm 2 m/s 746 mmHg 83%
20:00 -2°C° 0 mm 2 m/s 746 mmHg 83%
21:00 -2°C° 0 mm 2 m/s 747 mmHg 84%
22:00 -2°C° 0 mm 2 m/s 747 mmHg 84%
23:00 -2°C° 0 mm 2 m/s 747 mmHg 83%

31 Ianuarie, Duminică

Timp Temperatura Precipitaţii Vânt Presiune Umiditate
00:00 -2°C° 0 mm 2 m/s 747 mmHg 82%
01:00 -3°C° 0 mm 2 m/s 747 mmHg 82%
02:00 -3°C° 0 mm 2 m/s 747 mmHg 80%
03:00 -1°C° 0 mm 1 m/s 747 mmHg 78%
04:00 -1°C° 0 mm 1 m/s 747 mmHg 77%
05:00 -1°C° 0 mm 1 m/s 747 mmHg 77%
06:00 -1°C° 0 mm 1 m/s 748 mmHg 76%
07:00 -1°C° 0 mm 1 m/s 748 mmHg 76%
08:00 0°C° 0 mm 1 m/s 748 mmHg 71%
09:00 0°C° 0 mm 1 m/s 748 mmHg 66%
10:00 +1°C° 0 mm 1 m/s 748 mmHg 60%
11:00 +2°C° 0 mm 1 m/s 748 mmHg 56%
12:00 +3°C° 0 mm 1 m/s 748 mmHg 52%
13:00 +2°C° 0 mm 0 m/s 747 mmHg 48%
14:00 +3°C° 0 mm 1 m/s 747 mmHg 51%
15:00 +3°C° 0 mm 1 m/s 746 mmHg 55%
16:00 +3°C° 0 mm 1 m/s 745 mmHg 58%
17:00 +1°C° 0 mm 2 m/s 745 mmHg 62%
18:00 +1°C° 0 mm 2 m/s 745 mmHg 65%
19:00 -1°C° 0 mm 3 m/s 745 mmHg 69%
20:00 0°C° 0 mm 3 m/s 744 mmHg 68%
21:00 -1°C° 0 mm 4 m/s 744 mmHg 68%
22:00 -1°C° 0 mm 4 m/s 743 mmHg 67%
23:00 -1°C° 0 mm 4 m/s 743 mmHg 69%
Arată mai mult

Formular de consimțământ

Meteoprog și furnizorii noștri de servicii pot stoca și accesa date personale, precum cookies, identificatori de dispozitiv sau alte tehnologii similare pe dispozitivul dumneavoastră și procesa astfel de date pentru a personaliza conținutul și reclamele, dar și pentru a oferi caracteristici de social media și pentru a analiza traficul.

  • Stocarea și/sau accesarea informațiilor pe dispozitivul dumneavoastră

    Cookies, identificatori de dispozitiv sau alte informații pot fi stocate sau accesate pe dispozitiv în scopurile indicate mai sus.

  • Reclame și conținut personalizat, evaluarea reclamelor și a conținutului, informații despre audiențe și dezvoltarea produselor

    Reclamele și conținutul pot fi personalizate pe baza unui profil. Pot fi adăugate date suplimentare pentru a personaliza mai bine reclamele și conținutul. Performanța reclamelor și conținutului poate fi măsurată. Pot fi obținute informații despre utilizatorii care au văzut reclamele și conținutul. Aceste date pot fi utilizate pentru a dezvolta sau îmbunătăți experiența utilizatorilor, sistemele și software-ul.

Dând clic pe ‘Sunt de acord’, permiteți utilizarea cookie-urilor menționate, a identificatorilor de dispozitiv, balizelor web sau altor tehnologii similare. Setările pot fi modificate din browser-ul dispozitivului dumneavoastră.

În anumite scopuri, interesele legitime pot prima asupra consimțământului. Puteți citi mai multe informații în acest sens în Politica privind Confidențialitatea Datelor și Cookie.